カタログに戻る

ARIANE 5 DEB

SYLDA

運用中UNKNOWN
NORAD 28947·DEBRIS·🇫🇷 France

打ち上げ Mar 11, 2006 から Guiana Space Centre

Loading…

次のパス (今後24時間)

TLE

最新Source: Space-Track

元期: Sep 13, 2026, 23:55 UTC

1 28947U 06007C   26256.99655250  .00763484 -10016-4  29551-2 0  9994
2 28947   4.7234 356.5077 2184238  52.8252 325.2181 11.27232604292505

AllMySatでARIANE 5 DEBをリアルタイム追跡

Download on the App Store